Terminal Aerodrome Forecast
Issued by NWS Melbourne, FL

Home | Current Version | Previous Version | Text Only | Print | Product List | Glossary On
Versions: 1 2 3 4 5 6 7 8 9 10 11 12 13 14 15 16 17 18 19 20 21 22 23 24 25 26
000
FTUS42 KMLB 210259 AAA
TAFMCO
TAF AMD
KMCO 210259Z 2103/2124 16005KT P6SM BKN150 OVC210
     FM210800 VRB03KT 4SM BR BKN010
     FM211400 29005KT P6SM SCT015 BKN150
     FM211800 33005KT P6SM SCT040 BKN150=

USA.gov is the U.S. government's official web portal to all federal, state and local government web resources and services.